Change the Weather History Date:

Saturday, September 7, 2013

  Actual Average Record
Temperature  
Mean Temperature 81 °F 79 °F  
Max Temperature 92 °F 90 °F 100 °F (1954)
Min Temperature 70 °F 69 °F 50 °F (1953)
Degree Days  
Heating Degree Days 0 0  
Month to date heating degree days 0 0  
Since 1 July heating degree days 0 0  
Cooling Degree Days 16 14  
Month to date cooling degree days 127 103  
Year to date cooling degree days 1906 1974  
Growing Degree Days 30 (Base 50)    
Moisture  
Dew Point 69 °F    
Average Humidity 71    
Maximum Humidity 97    
Minimum Humidity 44    
Precipitation  
Precipitation 0.00 in 0.13 in 0.75 in (1991)
Month to date precipitation 1.52 0.95  
Year to date precipitation 53.69 43.11  
Sea Level Pressure  
Sea Level Pressure 30.03 in    
Wind  
Wind Speed 1 mph (East)    
Max Wind Speed 6 mph    
Max Gust Speed 29 mph    
Visibility 7 miles    
Events      
T = Trace of Precipitation, MM = Missing Value Source: NWS Daily Summary

Daily Weather History Graph

Daily Weather History Graph

Search for Another Location

Airport or City:

Trip Planner

Search our weather history database for the weather conditions in past years. The results will help you decide how hot, cold, wet, or windy it might be!

Date:

Astronomy

Sep. 07, 2013 Rise Set
Actual Time 6:36 AM CDT 7:12 PM CDT
Civil Twilight 6:12 AM CDT 7:37 PM CDT
Nautical Twilight 5:43 AM CDT 8:05 PM CDT
Astronomical Twilight 5:14 AM CDT 8:35 PM CDT
Moon 8:38 AM CDT (9/7) 8:24 PM CDT (9/7)
Length of Visible Light 13h 24m
Length of Day
12h 35m
Waxing Crescent, 5% of the Moon is Illuminated
Sep 7
Waxing Crescent
Sep 12
First Quarter
Sep 19
Full
Sep 26
Last Quarter
Oct 4
New

Hourly Weather History & Observations

Time (CDT) Temp. Heat Index Dew Point Humidity Pressure Visibility Wind Dir Wind Speed Gust Speed Precip Events Conditions
12:53 AM 75.0 °F - 73.0 °F 94% 30.04 in 5.0 mi Calm Calm - N/A   Scattered Clouds
1:53 AM 73.9 °F - 71.1 °F 91% 30.02 in 4.0 mi Calm Calm - N/A   Clear
2:53 AM 73.0 °F - 71.1 °F 93% 30.02 in 5.0 mi Calm Calm - N/A   Clear
3:50 AM 71.6 °F - 69.8 °F 94% 30.03 in 2.5 mi Calm Calm - N/A   Clear
3:53 AM 72.0 °F - 70.0 °F 93% 30.02 in 2.5 mi Calm Calm - N/A   Clear
4:04 AM 71.6 °F - 69.8 °F 94% 30.03 in 3.0 mi Calm Calm - N/A   Clear
4:53 AM 71.1 °F - 69.1 °F 93% 30.02 in 8.0 mi Calm Calm - N/A   Clear
5:53 AM 71.1 °F - 68.0 °F 90% 30.04 in 5.0 mi Calm Calm - N/A   Clear
6:53 AM 70.0 °F - 68.0 °F 93% 30.05 in 3.0 mi Calm Calm - N/A   Clear
7:11 AM 69.8 °F - 68.0 °F 94% 30.06 in 4.0 mi Calm Calm - N/A   Scattered Clouds
7:21 AM 71.6 °F - 69.8 °F 94% 30.06 in 3.0 mi Calm Calm - N/A   Mostly Cloudy
7:30 AM 71.6 °F - 69.8 °F 94% 30.06 in 4.0 mi Calm Calm - N/A   Scattered Clouds
7:43 AM 71.6 °F - 69.8 °F 94% 30.06 in 2.0 mi Calm Calm - N/A   Partly Cloudy
7:53 AM 73.0 °F - 71.1 °F 93% 30.06 in 2.5 mi Calm Calm - N/A   Clear
8:00 AM 73.4 °F - 71.6 °F 94% 30.06 in 3.0 mi Calm Calm - N/A   Clear
8:53 AM 78.1 °F - 71.1 °F 79% 30.06 in 6.0 mi Calm Calm - N/A   Haze
9:53 AM 82.9 °F 87.5 °F 71.1 °F 67% 30.08 in 10.0 mi Variable 3.5 mph - N/A   Clear
10:53 AM 86.0 °F 88.8 °F 66.9 °F 53% 30.08 in 10.0 mi Calm Calm - N/A   Clear
11:53 AM 88.0 °F 91.4 °F 68.0 °F 51% 30.06 in 10.0 mi ENE 5.8 mph - N/A   Partly Cloudy
12:53 PM 89.1 °F 92.1 °F 66.9 °F 48% 30.05 in 10.0 mi North 5.8 mph 28.8 mph N/A   Scattered Clouds
1:53 PM 89.1 °F 91.0 °F 64.9 °F 45% 30.02 in 10.0 mi Calm Calm - N/A   Mostly Cloudy
2:53 PM 91.0 °F 93.8 °F 66.0 °F 44% 30.00 in 10.0 mi Variable 5.8 mph - N/A   Partly Cloudy
3:53 PM 91.9 °F 94.5 °F 66.0 °F 42% 29.99 in 10.0 mi Variable 4.6 mph - N/A   Partly Cloudy
4:53 PM 90.0 °F 91.7 °F 64.9 °F 43% 29.98 in 10.0 mi Calm Calm - N/A   Scattered Clouds
5:53 PM 89.1 °F 91.0 °F 64.9 °F 45% 29.98 in 10.0 mi ESE 4.6 mph - N/A   Clear
6:53 PM 84.9 °F 89.4 °F 70.0 °F 61% 29.98 in 10.0 mi Calm Calm - N/A   Clear
7:53 PM 79.0 °F - 71.1 °F 77% 29.99 in 10.0 mi Calm Calm - N/A   Clear
8:53 PM 75.0 °F - 71.1 °F 87% 30.00 in 10.0 mi Calm Calm - N/A   Clear
9:53 PM 73.9 °F - 71.1 °F 91% 30.01 in 8.0 mi Calm Calm - N/A   Clear
10:53 PM 72.0 °F - 69.1 °F 91% 30.01 in 7.0 mi South 4.6 mph - N/A   Clear
11:53 PM 71.1 °F - 69.1 °F 93% 30.01 in 7.0 mi Calm Calm - N/A   Clear